カタログに戻る

RASSVET-3 14

運用中科学PO
NORAD 68373·PAYLOAD·🇷🇺 Russia

打ち上げ Mar 23, 2026 から Plesetsk Cosmodrome

Loading…

次のパス (今後24時間)

TLE

最新Source: Space-Track

元期: Sep 14, 2026, 07:50 UTC

1 68373U 26061P   26257.32669017  .00023015  00000-0  18010-3 0  9992
2 68373  82.2879 273.7121 0011575 141.3248 218.8845 15.71351972 27567

AllMySatでRASSVET-3 14をリアルタイム追跡

Download on the App Store